WetterOnline ( http://www.wetteronline.de )

Wetter aktuell Jessen (Elster)

Aktuelles Wetter: Wittenberg (106m)

6-stündlich | Neueste Meldungen
Ortszeit Temperatur Wetter
Mo, 19.11. 1:00 4.2° C bedeckt
So, 18.11. 19:00 2.5° C bedeckt
So, 18.11. 13:00 3.0° C bewölkt
So, 18.11. 7:00 -2.9° C wolkig
So, 18.11. 1:00 -1.4° C wolkenlos
Sa, 17.11. 19:00 2.4° C bewölkt
Sa, 17.11. 13:00 4.1° C wolkenlos
Sa, 17.11. 7:00 0.3° C wolkenlos
Ortszeit Temperatur Wetter
Mo, 19.11. 5:10 3.3° C bedeckt
Mo, 19.11. 5:00 3.3° C bedeckt
Mo, 19.11. 4:50 3.3° C bedeckt
Mo, 19.11. 4:40 3.4° C bedeckt
Mo, 19.11. 4:30 3.6° C bedeckt
Mo, 19.11. 4:20 3.6° C bedeckt
Mo, 19.11. 4:00 3.7° C bedeckt
Mo, 19.11. 3:30 3.7° C bewölkt
Mo, 19.11. 3:00 3.9° C bedeckt
Mo, 19.11. 2:30 4.1° C bewölkt
Ortszeit Relative Feuchte Sichtweite
Mo, 19.11. 1:00 93% 21 km
So, 18.11. 19:00 94% 5.0 km
So, 18.11. 13:00 52% 19 km
So, 18.11. 7:00 85% 5.0 km
So, 18.11. 1:00 81% 8 km
Sa, 17.11. 19:00 66% 19 km
Sa, 17.11. 13:00 74% 12 km
Sa, 17.11. 7:00 92% 6 km
Ortszeit Relative Feuchte Sichtweite
Mo, 19.11. 5:10 86% -
Mo, 19.11. 5:00 88% 50 km
Mo, 19.11. 4:50 88% -
Mo, 19.11. 4:40 87% -
Mo, 19.11. 4:30 85% 65 km
Mo, 19.11. 4:20 85% -
Mo, 19.11. 4:00 84% 70 km
Mo, 19.11. 3:30 83% 70 km
Mo, 19.11. 3:00 85% 65 km
Mo, 19.11. 2:30 86% 60 km
Ortszeit Niederschlagsmenge Niederschlagsart
Mo, 19.11. 1:00 0.4 l/m2 in 6 Std. Regen
So, 18.11. 19:00 0.1 l/m2 in 12 Std. Regen
So, 18.11. 13:00 0.0 l/m2 in 6 Std. -
So, 18.11. 7:00 0.0 l/m2 in 12 Std. -
So, 18.11. 1:00 0.0 l/m2 in 6 Std. -
Sa, 17.11. 19:00 0.0 l/m2 in 12 Std. -
Sa, 17.11. 13:00 0.0 l/m2 in 6 Std. -
Sa, 17.11. 7:00 0.0 l/m2 in 12 Std. -
Ortszeit Niederschlagsmenge Niederschlagsart
Mo, 19.11. 5:10 keine Meldung -
Mo, 19.11. 5:00 0.0 l/m2 in 1 Std. -
Mo, 19.11. 4:50 keine Meldung -
Mo, 19.11. 4:40 keine Meldung -
Mo, 19.11. 4:30 0.0 l/m2 in 1 Std. -
Mo, 19.11. 4:20 keine Meldung -
Mo, 19.11. 4:00 0.1 l/m2 in 1 Std. Sprühregen
Mo, 19.11. 3:30 0.1 l/m2 in 1 Std. Schnee
Mo, 19.11. 3:00 0.0 l/m2 in 1 Std. -
Mo, 19.11. 2:30 0.0 l/m2 in 1 Std. -
Ortszeit Stärke Spitze Richtung
km/h Bft. km/h Grad Sektor
Mo, 19.11. 1:00 13 3 26 20° N
So, 18.11. 19:00 15 3 22 360° N
So, 18.11. 13:00 7 2 22 30° NO
So, 18.11. 7:00 9 2 30 20° N
So, 18.11. 1:00 9 2 31 70° O
Sa, 17.11. 19:00 17 3 31 60° NO
Sa, 17.11. 13:00 11 2 29 70° O
Sa, 17.11. 7:00 13 3 22 60° NO
Ortszeit Stärke Spitze Richtung
km/h Bft. km/h Grad Sektor
Mo, 19.11. 5:10 17 3 - 30° NO
Mo, 19.11. 5:00 18 3 29 20° N
Mo, 19.11. 4:50 18 3 - 20° N
Mo, 19.11. 4:40 18 3 - 30° NO
Mo, 19.11. 4:30 17 3 28 30° NO
Mo, 19.11. 4:20 17 3 - 30° NO
Mo, 19.11. 4:00 19 3 39 40° NO
Mo, 19.11. 3:30 18 3 40 50° NO
Mo, 19.11. 3:00 18 3 29 40° NO
Mo, 19.11. 2:30 15 3 28 40° NO
Ortszeit Untergrenze Bedeckung Gattung
total tief tief mittel hoch
Mo, 19.11. 1:00 540 m 8/8 8/8 - - -
So, 18.11. 19:00 150 m 8/8 8/8 - - -
So, 18.11. 13:00 2100 m 8/8 5/8 - - -
So, 18.11. 7:00 7200 m 8/8 0/8 - - -
So, 18.11. 1:00 - 0/8 0/8 - - -
Sa, 17.11. 19:00 6300 m 8/8 7/8 - - -
Sa, 17.11. 13:00 - 0/8 0/8 - - -
Sa, 17.11. 7:00 - 0/8 0/8 - - -
Ortszeit Bedeckungsgrad in Achtel und Wolkenuntergrenze
Mo, 19.11. 5:10 8(1380m)
Mo, 19.11. 5:00 8(1320m)
Mo, 19.11. 4:50 8(1320m)
Mo, 19.11. 4:40 2(540m) 8(1350m)
Mo, 19.11. 4:30 6(480m) 8(1380m) 8(1380m)
Mo, 19.11. 4:20 6(480m) 8(1380m)
Mo, 19.11. 4:00 7(510m) 7(930m) 8(1350m)
Mo, 19.11. 3:30 5(510m) 7(1020m) 7(1500m)
Mo, 19.11. 3:00 2(480m) 7(1080m) 8(1410m)
Mo, 19.11. 2:30 1(510m) 7(1050m) 7(1290m)
Ortszeit Luftdruck NN (hPa) Tendenz (hPa in 3 Std.)
Mo, 19.11. 1:00 1024 - 1,9
So, 18.11. 19:00 1027 - 1,8
So, 18.11. 13:00 1031 - 1,6
So, 18.11. 7:00 1033 - 1,2
So, 18.11. 1:00 1036 - 0,5
Sa, 17.11. 19:00 1037 - 0,3
Sa, 17.11. 13:00 1037 - 0,4
Sa, 17.11. 7:00 1037 - 0,1
Ortszeit Luftdruck NN (hPa) Tendenz (hPa in 3 Std.)
Mo, 19.11. 5:10 1022 keine Meldung
Mo, 19.11. 5:00 1022 - 1,3
Mo, 19.11. 4:50 1022 keine Meldung
Mo, 19.11. 4:40 1022 keine Meldung
Mo, 19.11. 4:30 1023 - 1,0
Mo, 19.11. 4:20 1023 keine Meldung
Mo, 19.11. 4:00 1023 - 0,9
Mo, 19.11. 3:30 1023 - 1,0
Mo, 19.11. 3:00 1023 - 1,3
Mo, 19.11. 2:30 1023 - 1,7
Ortszeit Schneehöhe (cm)
Mo, 19.11. 1:00 0
So, 18.11. 19:00 0
So, 18.11. 13:00 0
So, 18.11. 7:00 0
So, 18.11. 1:00 0
Sa, 17.11. 19:00 0
Sa, 17.11. 13:00 0
Sa, 17.11. 7:00 0
Ortszeit Schneehöhe (cm)
Mo, 19.11. 5:10 0
Mo, 19.11. 5:00 0
Mo, 19.11. 4:50 0
Mo, 19.11. 4:40 0
Mo, 19.11. 4:30 0
Mo, 19.11. 4:20 0
Mo, 19.11. 4:00 0
Mo, 19.11. 3:30 0
Mo, 19.11. 3:00 0
Mo, 19.11. 2:30 0
Link zu dieser Seite / Seite empfehlen

Das Wetter in ...